Regional Weather Roundup
Issued by NWS

Home | Current Version | Previous Version | Text Only | Print | Product List | Glossary Off
Versions: 1 2 3 4 5 6 7 8 9 10 11 12 13 14 15 16 17 18 19 20 21 22 23 24 25 26 27 28 29 30 31 32 33 34 35 36 37 38 39 40 41 42 43 44 45 46 47 48 49 50

000
ASUS43 KMKX 160300
RWRWI

WISCONSIN REGIONAL WEATHER ROUNDUP
NATIONAL WEATHER SERVICE MILWAUKEE/SULLIVAN WI
900 PM CST SUN JAN 15 2017

NOTE: "FAIR" INDICATES FEW OR NO CLOUDS BELOW 12,000 FEET WITH NO
SIGNIFICANT WEATHER AND/OR OBSTRUCTIONS TO VISIBILITY.

WIZ001-002-006>008-014>016-023>028-160400-
NORTHWEST WISCONSIN

CITY           SKY/WX    TMP DP  RH WIND       PRES   REMARKS
SUPERIOR ARPT  CLOUDY    22  14  71 SW6       30.15F WCI  14
ASHLAND        CLEAR     25  13  60 SW15G24   30.14S WCI  13
HAYWARD        CLOUDY    17  10  74 SW5       30.18S WCI  10
SIREN          CLOUDY    17  13  82 S7        30.19S WCI   8
CUMBERLAND     CLOUDY    10   9  92 CALM      30.20S
RICE LAKE      CLOUDY    12   8  84 SE3       30.22S
CHETEK         CLOUDY     6   4  91 CALM      30.22S
LADYSMITH      CLOUDY    11   5  78 CALM      30.23S
EAU CLAIRE     NOT AVBL
MENOMONIE      CLOUDY    11   6  81 SE3       30.23F
NEW RICHMOND   CLOUDY    17  13  83 S6        30.21S WCI   9
OSCEOLA        CLOUDY    18  14  84 S5        30.24S WCI  11
$$

WIZ003>005-009-010-017-018-160400-
NORTH CENTRAL WISCONSIN

CITY           SKY/WX    TMP DP  RH WIND       PRES   REMARKS
MANITOWISH WTR CLOUDY    17   9  70 S3        30.15F
ARBOR VITAE    CLOUDY    17  10  73 S6        30.17S WCI   8
WOODRUFF       CLOUDY    17  10  73 S6        30.17S WCI   8
RHINELANDER    CLOUDY    17   9  70 SW8       30.18F WCI   7
EAGLE RIVER    CLOUDY    19   9  64 SW5       30.15F WCI  12
LAND O LAKES   CLOUDY    20  11  67 CALM      30.16S
PHILLIPS       CLOUDY    16   9  71 SW5       30.18S WCI   9
TOMAHAWK       CLOUDY    14   8  76 CALM      30.20F
MEDFORD        CLEAR     12   6  79 S6        30.20F WCI   2
MERRILL        CLOUDY     3   1  91 CALM        N/A
$$

WIZ029-030-035-036-043>047-160400-
CENTRAL WISCONSIN

CITY           SKY/WX    TMP DP  RH WIND       PRES   REMARKS
WAUSAU         CLOUDY    15   9  76 SE5       30.23S WCI   8
MOSINEE        CLEAR     16  12  86 CALM      30.24F
MARSHFIELD     CLOUDY    12   8  84 SW5       30.22F FOG     WCI   4
STEVENS POINT  CLOUDY     5   3  92 CALM      30.26F
WAUPACA        CLOUDY    14   9  79 CALM      30.28S
WAUTOMA        PTCLDY     9   5  84 CALM      30.29S
WISC RAPIDS    CLOUDY     9   7  92 CALM      30.27S
CAMP DOUGLAS   NOT AVBL
$$

WIZ011>013-019>022-031-037>040-048>050-160400-
NORTHEAST WISCONSIN

CITY           SKY/WX    TMP DP  RH WIND       PRES   REMARKS
ANTIGO         CLOUDY     8   6  92 CALM      30.21F
SHAWANO        CLOUDY    17  11  79 CALM      30.27F
OCONTO         CLOUDY    18   9  70 SW5       30.27S WCI  11
STURGEON BAY   CLOUDY    17  10  74 SW9       30.27S WCI   6
GREEN BAY      CLOUDY    18  11  74 SW3       30.29R
MANITOWOC      NOT AVBL
APPLETON       PTCLDY    18   9  68 SW6       30.25F WCI   9
CLINTONVILLE   CLOUDY    10   7  85 CALM      30.27S
OSHKOSH        CLOUDY    15  10  80 S7        30.28S WCI   5
$$

WIZ032>034-041-042-053>061-160400-
SOUTHWEST WISCONSIN

CITY           SKY/WX    TMP DP  RH WIND       PRES   REMARKS
LA CROSSE      CLOUDY   N/A N/A N/A SE6       30.28S
SPARTA         CLOUDY    10   9  93 CALM      30.28S
VIROQUA        CLOUDY    24  14  64 S6        30.25S WCI  17
BOSCOBEL       CLOUDY    21  16  81 CALM      30.30S
PRAIRIE DU CHI CLOUDY    22  17  80 CALM      30.29S
PLATTEVILLE    PTCLDY    27  22  82 SE6       30.28F WCI  20
$$

WIZ056-057-062-063-064-067-068-160400-
SOUTH CENTRAL WISCONSIN

CITY           SKY/WX    TMP DP  RH WIND       PRES   REMARKS
REEDSBURG      CLOUDY    19  14  82 CALM      30.27F
BARABOO/DELLS  CLOUDY    23  14  69 CALM      30.27F
LONE ROCK      NOT AVBL
MINERAL POINT  CLOUDY    28  21  74 S5        30.26F WCI  23
MADISON        CLOUDY    22  16  78 S3        30.29S
MIDDLETON      CLOUDY    25  20  80 CALM      30.29S
WATERTOWN      CLOUDY    18  16  90 CALM      30.29F
MONROE         CLOUDY    28  19  69 S7        30.28S WCI  21
JANESVILLE     CLEAR     25  21  86 CALM      30.30F
$$

WIZ051-052-058>065-066-070>072-160400-
SOUTHEAST WISCONSIN

CITY           SKY/WX    TMP DP  RH WIND       PRES   REMARKS
MILWAUKEE      CLOUDY    25  17  72 CALM      30.31S
WAUKESHA       CLEAR     23  16  74 S3        30.31S
MILWAUKEE/TIMM CLEAR     23  16  74 S3        30.31S
RACINE         PTCLDY    24  19  81 S3        30.33S HAZE
KENOSHA        CLOUDY    25  20  81 S3        30.31S HAZE
FOND DU LAC    CLOUDY     8   3  80 S3        30.29S
SHEBOYGAN      PTCLDY    12   7  80 SW5       30.30S WCI   4
WEST BEND      CLOUDY    18  16  93 CALM      30.29S
JUNEAU         CLOUDY    20  14  78 S5        30.30S WCI  13
$$

LSZ147-162-160400-
LAKE SUPERIOR

STATION/POSITION TIME  TEMP    WIND        PRES    WAVE
                       AIR SEA DIR/SP/G            HT/PER
                 (UTC) (F)     (DEG/KT/KT) (MB)    (FT/S)
DEVILS ISLAND    0200   32     230/ 19/ 24 1020.0S
PORT WING        0240   26     210/ 10/ 16 1020.7S
SAXON HARBOR     0240   28     190/ 10/ 16 1020.0S
$$

LMZ867-665-643>646-160400-
LAKE MICHIGAN

STATION/POSITION TIME  TEMP    WIND        PRES    WAVE
                       AIR SEA DIR/SP/G            HT/PER
                 (UTC) (F)     (DEG/KT/KT) (MB)    (FT/S)
NORTHPORT PIER   0240   21      CALM  /  5 1024.0F
SISTER BAY       0250   23     210/  8/ 11   N/A
ALGOMA LAKESHORE 0208          230/  7/  9   N/A
KEWAUNEE LAKESHO 0230   19     220/  1/  3 1025.2R
SHEBOYGAN LAKESH 0200   27     240/  5/  5 1027.1F
PORT WASHINGTON  0230   22     260/  5/  5 1027.1S
MILWAUKEE LAKESH 0230   31     220/  5/  5   N/A
KENOSHA   LAKESH 0200   30     190/  4/  6 1026.8
$$

TC  - TEMPERATURE IN CELSIUS
VSB - VISIBILITY IN STATUTE MILES
WCI - WIND CHILL INDEX
HX  - HEAT INDEX





USA.gov is the U.S. government's official web portal to all federal, state and local government web resources and services.